| time (UTC) | temp C | wind direction | speed KPH | gust KPH | rain 1hr cm | rain 24hr cm | rain mn cm | humidity % | barometer mb |
| 20260506202111 | 14 | 160 | 6.4 | 9.7 | 0.13 | 0.69 | 0.69 | 78 | 1093.5 |
| 20260506201114 | 14 | 144 | 6.4 | 11.3 | 0.13 | 0.69 | 0.69 | 79 | 1093.8 |
| 20260506200212 | 14 | 134 | 6.4 | 9.7 | 0.15 | 0.66 | 0.66 | 78 | 1093.8 |
| 20260506195213 | 14 | 156 | 6.4 | 9.7 | 0.18 | 0.66 | 0.66 | 79 | 1093.9 |
| 20260506193212 | 14 | 179 | 6.4 | 8.0 | 0.15 | 0.61 | 0.61 | 78 | 1094.2 |
| 20260506193113 | 14 | 165 | 8.0 | 11.3 | 0.15 | 0.61 | 0.61 | 79 | 1094.3 |
| 20260506192113 | 14 | 140 | 4.8 | 8.0 | 0.13 | 0.56 | 0.56 | 79 | 1094.2 |
| 20260506191211 | 14 | 154 | 8.0 | 11.3 | 0.15 | 0.56 | 0.56 | 78 | 1094.3 |
| 20260506184212 | 15 | 167 | 9.7 | 16.1 | 0.18 | 0.46 | 0.46 | 80 | 1094.3 |
| 20260506183213 | 15 | 133 | 3.2 | 6.4 | 0.18 | 0.46 | 0.46 | 80 | 1094.4 |
| 20260506182212 | 15 | 157 | 8.0 | 9.7 | 0.18 | 0.43 | 0.43 | 80 | 1094.5 |
| 20260506181212 | 15 | 160 | 6.4 | 9.7 | 0.20 | 0.41 | 0.41 | 80 | 1094.8 |
| 20260506175212 | 15 | 134 | 4.8 | 12.9 | 0.20 | 0.28 | 0.28 | 80 | 1094.9 |
| 20260506174311 | 15 | 162 | 3.2 | 4.8 | 0.23 | 0.28 | 0.28 | 80 | 1094.9 |
| 20260506173316 | 15 | 156 | 8.0 | 11.3 | 0.25 | 0.28 | 0.28 | 81 | 1095.0 |
| 20260506172312 | 15 | 154 | 4.8 | 8.0 | 0.25 | 0.25 | 0.25 | 82 | 1095.3 |
| 20260506171312 | 15 | 156 | 6.4 | 8.0 | 0.20 | 0.20 | 0.20 | 83 | 1095.8 |
| 20260506170312 | 15 | 135 | 0.0 | 0.0 | 0.13 | 0.13 | 0.13 | 83 | 1096.0 |
| 20260506165313 | 15 | 202 | 0.0 | 0.0 | 0.10 | 0.10 | 0.08 | 83 | 1096.1 |
| 20260506164311 | 15 | 247 | 0.0 | 0.0 | 0.05 | 0.05 | 0.05 | 82 | 1096.1 |
| 20260506163313 | 16 | 247 | 0.0 | 1.6 | 0.03 | 0.03 | 0.00 | 82 | 1096.0 |
| 20260506162311 | 16 | 184 | 1.6 | 4.8 | 0.00 | 0.00 | 0.00 | 80 | 1096.0 |
| 20260506161313 | 16 | 198 | 4.8 | 8.0 | 0.00 | 0.00 | 0.00 | 80 | 1096.1 |
| 20260506160312 | 16 | 166 | 8.0 | 11.3 | 0.00 | 0.00 | 0.00 | 79 | 1096.1 |
| 20260506155315 | 17 | 156 | 8.0 | 14.5 | 0.00 | 0.00 | 0.00 | 78 | 1096.1 |
| 20260506154411 | 17 | 171 | 6.4 | 9.7 | 0.00 | 0.00 | 0.00 | 78 | 1096.3 |
| 20260506153411 | 17 | 157 | 6.4 | 9.7 | 0.00 | 0.00 | 0.00 | 76 | 1096.4 |
| 20260506152413 | 17 | 166 | 4.8 | 9.7 | 0.00 | 0.00 | 0.00 | 76 | 1096.6 |
| 20260506151413 | 17 | 169 | 6.4 | 9.7 | 0.00 | 0.00 | 0.00 | 76 | 1096.7 |
| 20260506150411 | 16 | 175 | 4.8 | 8.0 | 0.00 | 0.00 | 0.00 | 78 | 1096.9 |
| 20260506145415 | 16 | 175 | 3.2 | 6.4 | 0.00 | 0.00 | 0.00 | 79 | 1097.0 |
| 20260506144413 | 16 | 176 | 1.6 | 4.8 | 0.00 | 0.00 | 0.00 | 78 | 1096.8 |
| 20260506141612 | 17 | 174 | 8.0 | 11.3 | 0.00 | 0.00 | 0.00 | 77 | 1097.0 |
| 20260506140613 | 17 | 210 | 4.8 | 11.3 | 0.00 | 0.00 | 0.00 | 76 | 1096.6 |
| 20260506135712 | 17 | 157 | 8.0 | 11.3 | 0.00 | 0.00 | 0.00 | 76 | 1096.8 |
| 20260506134713 | 17 | 135 | 6.4 | 11.3 | 0.00 | 0.00 | 0.00 | 79 | 1096.5 |
| 20260506132712 | 16 | 112 | 0.0 | 3.2 | 0.00 | 0.00 | 0.00 | 82 | 1096.5 |
| 20260506131713 | 15 | 159 | 4.8 | 8.0 | 0.00 | 0.00 | 0.00 | 82 | 1096.3 |
| 20260506130713 | 15 | 157 | 3.2 | 6.4 | 0.00 | 0.00 | 0.00 | 84 | 1096.6 |
| 20260506124715 | 13 | 247 | 0.0 | 0.0 | 0.00 | 0.00 | 0.00 | 84 | 1097.0 |
| 20260506122811 | 12 | 247 | 0.0 | 0.0 | 0.00 | 0.00 | 0.00 | 82 | 1097.5 |
| 20260506115813 | 10 | 247 | 0.0 | 0.0 | 0.00 | 0.00 | 0.00 | 81 | 1097.4 |
| 20260506114815 | 10 | 247 | 0.0 | 0.0 | 0.00 | 0.00 | 0.00 | 82 | 1097.2 |
| 20260506113911 | 10 | 247 | 0.0 | 0.0 | 0.00 | 0.00 | 0.00 | 81 | 1097.2 |
| 20260506111911 | 9 | 247 | 0.0 | 0.0 | 0.00 | 0.00 | 0.00 | 81 | 1097.2 |
| 20260506110912 | 9 | 247 | 0.0 | 0.0 | 0.00 | 0.00 | 0.00 | 80 | 1097.1 |
| 20260506110011 | 8 | 247 | 0.0 | 0.0 | 0.00 | 0.00 | 0.00 | 80 | 1097.2 |
| 20260506104111 | 8 | 247 | 0.0 | 0.0 | 0.00 | 0.00 | 0.00 | 81 | 1097.3 |
| 20260506103112 | 8 | 247 | 0.0 | 0.0 | 0.00 | 0.00 | 0.00 | 81 | 1097.2 |
| 20260506102111 | 7 | 247 | 0.0 | 0.0 | 0.00 | 0.00 | 0.00 | 82 | 1097.3 |
| 20260506101113 | 7 | 247 | 0.0 | 0.0 | 0.00 | 0.00 | 0.00 | 81 | 1097.0 |
| 20260506100210 | 7 | 247 | 0.0 | 0.0 | 0.00 | 0.00 | 0.00 | 82 | 1096.8 |
| 20260506100114 | 7 | 247 | 0.0 | 0.0 | 0.00 | 0.00 | 0.00 | 81 | 1096.8 |
| 20260506095213 | 8 | 247 | 0.0 | 0.0 | 0.00 | 0.00 | 0.00 | 82 | 1096.9 |
| 20260506093213 | 8 | 247 | 0.0 | 0.0 | 0.00 | 0.00 | 0.00 | 81 | 1096.7 |
| 20260506092213 | 8 | 247 | 0.0 | 0.0 | 0.00 | 0.00 | 0.00 | 83 | 1096.9 |
| 20260506091214 | 8 | 247 | 0.0 | 0.0 | 0.00 | 0.00 | 0.00 | 83 | 1097.0 |
| 20260506090213 | 8 | 247 | 0.0 | 0.0 | 0.00 | 0.00 | 0.00 | 83 | 1096.8 |
| 20260506085213 | 8 | 247 | 0.0 | 0.0 | 0.00 | 0.00 | 0.00 | 83 | 1097.0 |
| 20260506085127 | 8 | 247 | 0.0 | 0.0 | 0.00 | 0.00 | 0.00 | 82 | 1097.0 |
| 20260506084111 | 8 | 247 | 0.0 | 0.0 | 0.00 | 0.00 | 0.00 | 82 | 1096.9 |
| 20260506083113 | 8 | 247 | 0.0 | 0.0 | 0.00 | 0.00 | 0.00 | 83 | 1096.9 |
| 20260506082112 | 9 | 247 | 0.0 | 0.0 | 0.00 | 0.00 | 0.00 | 83 | 1097.1 |
| 20260506070113 | 10 | 247 | 0.0 | 0.0 | 0.00 | 0.00 | 0.00 | 84 | 1097.3 |
| 20260506061011 | 11 | 247 | 0.0 | 0.0 | 0.00 | 0.00 | 0.00 | 82 | 1097.2 |
| 20260506045112 | 15 | 181 | 3.2 | 6.4 | 0.00 | 0.00 | 0.00 | 71 | 1097.5 |
| 20260506044113 | 15 | 157 | 1.6 | 6.4 | 0.00 | 0.00 | 0.00 | 71 | 1097.7 |
| 20260506043210 | 15 | 157 | 0.0 | 0.0 | 0.00 | 0.00 | 0.00 | 71 | 1097.6 |
| 20260506042212 | 15 | 112 | 1.6 | 3.2 | 0.00 | 0.00 | 0.00 | 70 | 1097.4 |
| 20260506041210 | 15 | 112 | 0.0 | 0.0 | 0.00 | 0.00 | 0.00 | 69 | 1097.6 |
| 20260506040211 | 16 | 126 | 4.8 | 9.7 | 0.00 | 0.00 | 0.00 | 69 | 1097.4 |
| 20260506035210 | 16 | 143 | 3.2 | 6.4 | 0.00 | 0.00 | 0.00 | 69 | 1097.6 |
| 20260506034212 | 16 | 157 | 0.0 | 1.6 | 0.00 | 0.00 | 0.00 | 68 | 1097.6 |
| 20260506034110 | 16 | 157 | 0.0 | 1.6 | 0.00 | 0.00 | 0.00 | 68 | 1097.6 |
| 20260506033109 | 16 | 157 | 0.0 | 1.6 | 0.00 | 0.00 | 0.00 | 66 | 1097.6 |
| 20260506032109 | 16 | 202 | 0.0 | 1.6 | 0.00 | 0.00 | 0.00 | 67 | 1097.5 |
| 20260506031110 | 16 | 210 | 1.6 | 4.8 | 0.00 | 0.00 | 0.00 | 67 | 1097.6 |
| 20260506030111 | 17 | 202 | 4.8 | 6.4 | 0.00 | 0.00 | 0.00 | 67 | 1097.5 |
| 20260506025111 | 17 | 202 | 0.0 | 0.0 | 0.00 | 0.00 | 0.00 | 66 | 1097.3 |
| 20260506024209 | 17 | 202 | 0.0 | 0.0 | 0.00 | 0.00 | 0.00 | 65 | 1097.5 |
| 20260506023224 | 17 | 157 | 0.0 | 1.6 | 0.00 | 0.00 | 0.00 | 68 | 1097.6 |
| 20260506022210 | 16 | 157 | 0.0 | 1.6 | 0.00 | 0.00 | 0.00 | 69 | 1097.7 |
| 20260506020310 | 16 | 157 | 0.0 | 0.0 | 0.00 | 0.00 | 0.00 | 69 | 1097.6 |
| 20260506015310 | 16 | 202 | 0.0 | 0.0 | 0.00 | 0.00 | 0.00 | 69 | 1097.4 |
| 20260506014311 | 16 | 202 | 0.0 | 0.0 | 0.00 | 0.00 | 0.00 | 69 | 1097.4 |
| 20260506012411 | 17 | 202 | 0.0 | 0.0 | 0.00 | 0.00 | 0.00 | 67 | 1097.3 |
| 20260506011508 | 17 | 202 | 0.0 | 0.0 | 0.00 | 0.00 | 0.00 | 65 | 1097.2 |
| 20260506010511 | 18 | 247 | 0.0 | 0.0 | 0.00 | 0.00 | 0.00 | 63 | 1097.1 |
| 20260506005609 | 18 | 247 | 0.0 | 0.0 | 0.00 | 0.00 | 0.00 | 62 | 1097.0 |
| 20260506004610 | 18 | 247 | 0.0 | 0.0 | 0.00 | 0.00 | 0.00 | 60 | 1096.9 |
| 20260506003611 | 18 | 202 | 3.2 | 3.2 | 0.00 | 0.00 | 0.00 | 60 | 1096.9 |
| 20260506002709 | 19 | 157 | 0.0 | 0.0 | 0.00 | 0.00 | 0.00 | 60 | 1096.9 |
| 20260506001711 | 19 | 55 | 0.0 | 3.2 | 0.00 | 0.00 | 0.00 | 59 | 1096.7 |
| 20260506000809 | 19 | 22 | 0.0 | 0.0 | 0.00 | 0.00 | 0.00 | 58 | 1096.6 |
| 20260505235810 | 20 | 346 | 4.8 | 9.7 | 0.00 | 0.00 | 0.00 | 56 | 1096.5 |
| 20260505234810 | 20 | 337 | 4.8 | 6.4 | 0.00 | 0.00 | 0.00 | 53 | 1096.3 |
| 20260505233909 | 21 | 338 | 6.4 | 14.5 | 0.00 | 0.00 | 0.00 | 49 | 1096.1 |
| 20260505233808 | 21 | 330 | 6.4 | 9.7 | 0.00 | 0.00 | 0.00 | 49 | 1096.1 |
| 20260505232811 | 22 | 14 | 0.0 | 0.0 | 0.00 | 0.00 | 0.00 | 47 | 1095.5 |
| 20260505231809 | 22 | 252 | 3.2 | 8.0 | 0.00 | 0.00 | 0.00 | 47 | 1095.1 |
| 20260505230909 | 22 | 187 | 8.0 | 16.1 | 0.00 | 0.00 | 0.00 | 47 | 1094.6 |
| 20260505225012 | 22 | 159 | 9.7 | 14.5 | 0.00 | 0.00 | 0.00 | 46 | 1094.5 |
| 20260505223109 | 23 | 166 | 16.1 | 24.1 | 0.00 | 0.00 | 0.00 | 44 | 1094.1 |
| 20260505222109 | 23 | 172 | 4.8 | 8.0 | 0.00 | 0.00 | 0.00 | 41 | 1094.1 |
| 20260505221110 | 23 | 168 | 8.0 | 9.7 | 0.00 | 0.00 | 0.00 | 41 | 1093.9 |
| 20260505220110 | 24 | 173 | 11.3 | 22.5 | 0.00 | 0.00 | 0.00 | 37 | 1093.7 |
| 20260505215110 | 25 | 165 | 11.3 | 16.1 | 0.00 | 0.00 | 0.00 | 35 | 1093.8 |
| 20260505214112 | 25 | 153 | 8.0 | 12.9 | 0.00 | 0.00 | 0.00 | 35 | 1093.7 |
| 20260505213207 | 25 | 95 | 11.3 | 22.5 | 0.00 | 0.00 | 0.00 | 35 | 1093.3 |
| 20260505213108 | 25 | 150 | 4.8 | 9.7 | 0.00 | 0.00 | 0.00 | 35 | 1093.7 |
| 20260505204211 | 25 | 184 | 1.6 | 6.4 | 0.00 | 0.00 | 0.00 | 35 | 1093.5 |